IDEFIX & ARIANE 42P R/B

Last updated on Mon Sep 21 2026 00:02:09 GMT+0000 (Coordinated Universal Time)

1 27422U 02021B 26263.42538591 .00000124 00000+0 63664-4 0 9993 2 27422 98.5983 199.8911 0011516 340.3247 19.7491 14.31118188271878
UTC large
Height (km)
Speed (km/s)
/
Latitude / Longitude
Inclination (degrees)
Orbital Period (minutes)
Azimuth
Elevation
Range (km)
Doppler Factor

Next 0 passes for location: London (51.5072 / 0.1276)

No passes found over London.
IDEFIX & ARIANE 42P R/B